Location: Newark
(56.0692°N, 115.8617°E)
Time: 13:25:46
(UTC+00:00)

deb Explorer IX - Pass Details

Date: 27 May 2020
Orbit: 543 x 1102 km, 38.8° (Epoch: 06 July)

Event Time Altitude Azimuth Distance (km) Brightness Sun altitude
Rises 15:38:48 0° 241° (WSW) 3,209 ? -12.1°
Reaches altitude 10° 15:42:49 10° 212° (SSW) 2,425 ? -12.2°
Enters shadow 15:43:20 11° 206° (SSW) 2,380 ? -12.2°
